LA1KNX Weather Reports


time (UTC)temp
C
wind
direction
speed
KPH
gust
KPH
rain 1hr
cm
rain 24hr
cm
rain mn
cm
humidity
%
barometer
mb
20260902071502 19 246 12.9 0.0 0.00 0.00 0.00 61 1018.2
20260902070002 18 246 12.9 0.0 0.00 0.00 0.00 61 1018.2
20260902064503 15 246 12.9 0.0 0.00 0.00 0.00 61 1018.2
20260902063002 12 237 11.3 0.0 0.00 0.00 0.00 61 1018.2
20260902061502 13 237 11.3 0.0 0.00 0.00 0.00 61 1018.2
20260902060003 13 229 8.0 0.0 0.00 0.00 0.00 61 1018.2
20260902054501 11 229 8.0 0.0 0.00 0.00 0.00 61 1018.2
20260902053002 9 229 8.0 0.0 0.00 0.00 0.00 61 1018.2
20260902051501 9 229 8.0 0.0 0.00 0.00 0.00 61 1018.2
20260902050008 9 229 8.0 0.0 0.00 0.00 0.00 61 1018.2
20260902043003 9 222 9.7 0.0 0.00 0.00 0.00 61 1018.2
20260902041501 10 206 8.0 0.0 0.00 0.00 0.00 61 1018.2
20260902040003 10 206 8.0 0.0 0.00 0.00 0.00 61 1018.2
20260902034502 10 206 8.0 0.0 0.00 0.00 0.00 61 1018.2
20260902033004 10 206 8.0 0.0 0.00 0.00 0.00 61 1018.2
20260902031502 10 206 8.0 0.0 0.00 0.00 0.00 61 1018.2
20260902030003 10 206 8.0 0.0 0.00 0.00 0.00 61 1018.2
20260902024502 10 206 8.0 0.0 0.00 0.00 0.00 61 1018.2
20260902023002 10 193 8.0 0.0 0.00 0.00 0.00 61 1018.2
20260902021501 10 193 8.0 0.0 0.00 0.00 0.00 61 1018.2
20260902020004 10 190 4.8 0.0 0.00 0.00 0.00 61 1018.2
20260902014502 10 190 4.8 0.0 0.00 0.00 0.00 61 1018.2
20260902013003 10 190 4.8 0.0 0.00 0.00 0.00 61 1018.2
20260902011502 10 190 4.8 0.0 0.00 0.00 0.00 61 1018.2
20260902010002 10 190 4.8 0.0 0.00 0.00 0.00 61 1018.2
20260902004502 10 210 3.2 0.0 0.00 0.00 0.00 61 1018.2
20260902003002 10 210 3.2 0.0 0.00 0.00 0.00 61 1018.2
20260902000002 10 230 4.8 0.0 0.00 0.00 0.00 61 1018.2
20260901234503 10 230 4.8 0.0 0.00 0.00 0.00 61 1018.2
20260901233002 10 230 4.8 0.0 0.00 0.00 0.00 61 1018.2
20260901231501 10 230 4.8 0.0 0.00 0.00 0.00 61 1018.2
20260901230002 10 230 4.8 0.0 0.00 0.00 0.00 61 1018.2
20260901224502 10 230 4.8 0.0 0.00 0.00 0.00 61 1018.2
20260901223002 10 244 4.8 0.0 0.00 0.00 0.00 61 1018.2
20260901221503 10 244 4.8 0.0 0.00 0.00 0.00 61 1018.2
20260901220002 11 244 4.8 0.0 0.00 0.00 0.00 61 1018.2
20260901214503 11 182 4.8 0.0 0.00 0.00 0.00 61 1018.2
20260901213002 11 182 4.8 0.0 0.00 0.00 0.00 61 1018.2
20260901211502 11 182 4.8 0.0 0.00 0.00 0.00 61 1018.2
20260901210003 11 182 4.8 0.0 0.00 0.00 0.00 61 1018.2
20260901204503 11 202 6.4 0.0 0.00 0.00 0.00 61 1018.2
20260901203002 11 202 6.4 0.0 0.00 0.00 0.00 61 1018.2
20260901201502 11 202 6.4 0.0 0.00 0.00 0.00 61 1018.2
20260901200003 12 193 8.0 0.0 0.00 0.00 0.00 61 1018.2
20260901194501 12 193 8.0 0.0 0.00 0.00 0.00 61 1018.2
20260901193004 12 193 8.0 0.0 0.00 0.00 0.00 61 1018.2
20260901191503 12 193 8.0 0.0 0.00 0.00 0.00 61 1018.2
20260901190003 12 193 8.0 0.0 0.00 0.00 0.00 61 1018.2
20260901184502 12 193 8.0 0.0 0.00 0.00 0.00 61 1018.2
20260901183003 13 186 9.7 0.0 0.00 0.00 0.00 61 1018.2
20260901181503 13 186 9.7 0.0 0.00 0.00 0.00 61 1018.2
20260901180002 13 186 9.7 0.0 0.00 0.00 0.00 61 1018.2
20260901174502 13 156 9.7 0.0 0.00 0.00 0.00 61 1018.2
20260901171502 13 156 9.7 0.0 0.00 0.00 0.00 61 1018.2
20260901170003 13 156 9.7 0.0 0.00 0.00 0.00 61 1018.2
20260901164502 13 148 9.7 0.0 0.00 0.00 0.00 61 1018.2
20260901163004 13 148 9.7 0.0 0.00 0.00 0.00 61 1018.2
20260901161503 14 148 9.7 0.0 0.00 0.00 0.00 61 1018.2
20260901160002 14 137 8.0 0.0 0.00 0.00 0.00 61 1018.2
20260901154503 14 137 8.0 0.0 0.00 0.00 0.00 61 1018.2
20260901153003 14 137 8.0 0.0 0.00 0.00 0.00 61 1018.2
20260901151502 14 137 8.0 0.0 0.00 0.00 0.00 61 1018.2
20260901150004 14 137 8.0 0.0 0.00 0.00 0.00 61 1018.2
20260901144502 14 137 8.0 0.0 0.00 0.00 0.00 61 1018.2
20260901143002 14 137 8.0 0.0 0.00 0.00 0.00 61 1018.2
20260901141502 14 117 6.4 0.0 0.00 0.00 0.00 61 1018.2
20260901140002 14 117 6.4 0.0 0.00 0.00 0.00 61 1018.2
20260901134503 14 105 6.4 0.0 0.00 0.00 0.00 61 1018.2
20260901131505 13 105 6.4 0.0 0.00 0.00 0.00 61 1018.2
20260901130002 13 105 6.4 0.0 0.00 0.00 0.00 61 1018.2
20260901124502 13 105 6.4 0.0 0.00 0.00 0.00 61 1018.2
20260901123001 13 104 4.8 0.0 0.00 0.00 0.00 61 1018.2
20260901121502 12 104 4.8 0.0 0.00 0.00 0.00 61 1018.2
20260901120002 12 96 4.8 0.0 0.00 0.00 0.00 61 1018.2
20260901114502 12 96 4.8 0.0 0.00 0.00 0.00 61 1018.2
20260901113002 12 96 4.8 0.0 0.00 0.00 0.00 61 1018.2
20260901111503 12 96 4.8 0.0 0.00 0.00 0.00 61 1018.2
20260901110002 12 96 4.8 0.0 0.00 0.00 0.00 61 1018.2
20260901104501 12 73 4.8 0.0 0.00 0.00 0.00 61 1018.2
20260901103003 12 73 4.8 0.0 0.00 0.00 0.00 61 1018.2
20260901100003 12 37 4.8 0.0 0.00 0.00 0.00 61 1018.2
20260901094502 12 37 4.8 0.0 0.00 0.00 0.00 61 1018.2
20260901093002 12 37 4.8 0.0 0.00 0.00 0.00 61 1018.2
20260901091502 12 37 4.8 0.0 0.00 0.00 0.00 61 1018.2
20260901090002 12 37 4.8 0.0 0.00 0.00 0.00 61 1018.2
20260901084502 11 37 4.8 0.0 0.00 0.00 0.00 61 1018.2
20260901083003 11 22 4.8 0.0 0.00 0.00 0.00 61 1018.2
20260901081503 11 22 4.8 0.0 0.00 0.00 0.00 61 1018.2
20260901080003 11 353 4.8 0.0 0.00 0.00 0.00 61 1018.2
20260901074502 11 353 4.8 0.0 0.00 0.00 0.00 61 1018.2
20260901073003 10 353 4.8 0.0 0.00 0.00 0.00 61 1018.2